Regional Weather Roundup
Issued by NWS

Home | Current Version | Previous Version | Graphics & Text | Print | Product List | Glossary On
Versions: 1 2 3 4 5 6 7 8 9 10 11 12 13 14 15 16 17 18 19 20 21 22 23 24 25 26 27 28 29 30 31 32 33 34 35 36 37 38 39 40 41 42 43 44 45 46 47 48 49 50
000
ASUS45 KSLC 251410
RWRUT

UTAH REGIONAL WEATHER ROUNDUP
NATIONAL WEATHER SERVICE SALT LAKE CITY UT
700 AM MST SUN JAN 25 2015

UTZ001>011-023>025-251500-

NORTHERN UTAH

CITY           SKY/WX    TMP DP  RH WIND       PRES   REMARKS
BRIGHAM CITY   CLOUDY    33  30  89 CALM      30.47S
HILL AFB       MOCLDY    36  25  64 E6        30.45R WCI  31
LOGAN          CLOUDY    32  30  92 CALM      30.44F FOG
OGDEN          CLOUDY    32  27  81 CALM      30.45R
PROVO AIRPORT  MOCLDY    34  27  75 CALM      30.47R
SALT LAKE CITY MOCLDY    33  28  81 SW3       30.46S
VERNAL         CLEAR     16  11  80 CALM      30.39R
WENDOVER       PTCLDY    27  21  80 CALM      30.47R
HEBER CITY     CLOUDY    30  27  86 CALM      30.46R
WEST JORDAN    CLOUDY    34  28  80 CALM      30.46S

$$

UTZ012>022-026-027-251500-

SOUTHERN/CENTRAL UTAH

CITY           SKY/WX    TMP DP  RH WIND       PRES   REMARKS
BLANDING       CLEAR     30  20  67 CALM      30.37R
BRYCE CANYON   CLEAR     21  20  96 W8        30.40R WCI  11
CEDAR CITY     PTCLDY    25  21  85 E6        30.38S WCI  18
DELTA          CLEAR     32  26  80 N3        30.44R
MILFORD        CLEAR     26  21  81 CALM      30.41R
MOAB/CYNLANDS  CLEAR     23  18  81 CALM      30.35F
PRICE          CLEAR     26  17  68 E3        30.33R
ST GEORGE      MOSUNNY   37  23  56 CALM      30.35R
KANAB          CLEAR     27  21  80 NE8       30.38R WCI  18

$$

REGIONAL REPORTS     COLORADO/ARIZONA

CITY           SKY/WX    TMP DP  RH WIND       PRES   REMARKS
CRAIG, CO      PTCLDY    11   8  88 CALM      30.37R
GRAND JUNCTION PTCLDY    21  16  81 E7        30.38R WCI  12
RIFLE          CLOUDY    23  15  71 S3        30.41R
MONTROSE       PTCLDY    17  12  80 SE5       30.41R WCI  10
CORTEZ         CLEAR     18  14  84 NE3       30.31R
PAGE, AZ       NOT AVBL
GRAND CANYON   PTCLDY    33  21  61 NE9       30.34R WCI  25
KINGMAN        CLEAR     38  21  50 NE5       30.25R WCI  34
FLAGSTAFF      PTCLDY    37  19  48 E14       30.31R WCI  28

$$

REGIONAL REPORTS    NEVADA/IDAHO/WYOMING

CITY           SKY/WX    TMP DP  RH WIND       PRES   REMARKS
LAS VEGAS, NV  CLEAR     45  24  43 S6        30.23R
ELY            CLEAR     20  18  92 S10       30.43S WCI   9
ELKO           CLEAR     25  22  88 NE3       30.45R
POCATELLO, ID  CLOUDY    30  29  96 N5        30.44S WCI  25
BURLEY         PTCLDY    29  27  92 CALM      30.42R FOG
EVANSTON, WY   PTCLDY    28  26  92 SW9       30.43R WCI  19
ROCK SPRINGS   PTCLDY    30  27  88 W26       30.31S WCI  16
KEMMERER       CLOUDY    32  30  93 S6        30.39R WCI  26

$$


USA.gov is the U.S. government's official web portal to all federal, state and local government web resources and services.